Total_Precipitation_Accumulation
1.23 1.21 1.23 1.13 1.04 1.00 1.02 1.23 1.57 1.39 0.84 0.54 0.50 0.57 0.73 0.91 1.11 1.13 1.10 1.24 1.28 1.27 1.33 1.40 1.47 1.58 1.82 2.22 2.96 3.89 4.66 4.90 4.64 4.11 3.84 4.09 4.50 5.03
1.31 1.25 1.23 1.16 1.11 1.07 1.07 1.11 1.31 1.54 1.20 0.59 0.51 0.56 0.71 0.87 1.07 1.08 1.07 1.23 1.26 1.30 1.30 1.36 1.47 1.57 1.73 1.93 2.29 3.00 3.82 4.54 4.86 4.85 4.66 4.56 4.72 5.04
1.47 1.42 1.29 1.21 1.25 1.19 1.16 1.17 1.20 1.37 1.41 0.74 0.54 0.59 0.75 0.88 0.97 1.00 1.03 1.08 1.09 1.23 1.29 1.36 1.38 1.46 1.60 1.79 2.00 2.39 3.06 3.78 4.42 4.88 5.16 5.13 5.06 5.05
1.58 1.53 1.42 1.37 1.36 1.30 1.33 1.30 1.22 1.21 1.38 1.11 0.72 0.67 0.73 0.83 0.91 0.99 1.04 1.07 1.07 1.18 1.25 1.33 1.41 1.48 1.58 1.71 1.89 2.06 2.44 2.99 3.61 4.23 4.67 4.84 4.93 5.19
1.69 1.71 1.64 1.60 1.56 1.49 1.48 1.47 1.39 1.29 1.34 1.37 1.01 0.80 0.82 0.91 1.05 1.10 1.13 1.20 1.21 1.31 1.34 1.34 1.46 1.56 1.58 1.68 1.85 1.98 2.08 2.33 2.78 3.47 4.18 4.47 4.52 4.67
1.73 1.77 1.80 1.82 1.78 1.77 1.83 1.79 1.76 1.76 1.67 1.62 1.34 1.08 1.02 1.03 1.18 1.27 1.26 1.24 1.31 1.34 1.44 1.40 1.47 1.55 1.57 1.59 1.65 1.71 1.88 2.22 2.59 3.03 3.63 4.03 4.11 4.16
1.78 1.76 1.79 1.94 2.11 2.27 2.40 2.29 2.20 2.27 2.19 2.08 1.81 1.52 1.34 1.32 1.38 1.33 1.39 1.34 1.38 1.38 1.38 1.33 1.30 1.30 1.37 1.52 1.66 1.72 1.81 2.04 2.31 2.70 3.17 3.62 3.92 4.00
1.85 1.76 1.77 1.89 1.99 2.16 2.34 2.32 2.32 2.50 2.59 2.45 2.18 1.88 1.50 1.37 1.45 1.61 1.73 1.81 1.74 1.46 1.45 1.48 1.39 1.42 1.42 1.45 1.68 1.77 1.84 2.06 2.25 2.44 2.82 3.21 3.59 3.96
1.64 1.64 1.66 1.71 1.86 1.74 1.90 1.97 1.99 2.11 2.30 2.42 2.43 2.02 1.72 1.58 1.84 2.06 2.07 2.07 1.80 1.58 1.73 1.91 1.73 1.66 1.57 1.64 1.83 1.74 1.81 1.96 2.16 2.32 2.48 2.81 3.20 3.62
1.46 1.47 1.49 1.51 1.63 1.83 1.90 1.82 1.66 1.63 1.81 1.97 2.14 2.01 1.91 1.97 2.31 2.65 2.73 2.74 2.39 2.02 1.94 2.23 2.01 1.92 1.84 1.79 1.88 1.79 1.80 1.87 1.96 2.14 2.34 2.55 2.80 3.15
1.45 1.47 1.50 1.41 1.66 1.99 2.03 1.92 1.67 1.51 1.60 1.86 2.08 2.19 2.32 2.50 2.78 3.18 3.34 3.42 3.20 2.62 2.27 2.33 2.21 2.10 2.09 2.05 2.00 1.94 1.85 1.87 1.90 1.99 2.16 2.37 2.61 2.88
1.46 1.49 1.71 1.69 1.81 1.94 1.91 1.97 1.95 1.62 1.43 1.51 1.63 1.78 1.87 2.09 2.52 2.76 3.02 3.33 3.24 2.99 2.43 2.36 2.39 2.40 2.63 2.26 1.97 1.84 1.81 1.92 1.93 1.90 1.93 2.07 2.34 2.51
1.63 1.62 1.66 1.86 1.84 1.88 1.91 1.88 1.97 1.83 1.68 1.68 1.65 1.62 1.70 1.86 2.06 2.31 2.63 3.05 3.28 3.03 2.41 2.61 2.85 2.67 2.74 2.48 2.08 1.89 1.78 1.75 1.72 1.78 1.86 1.93 2.08 2.28
1.69 1.54 1.63 1.88 1.86 1.89 1.85 1.92 2.03 1.99 1.84 1.81 1.71 1.58 1.57 1.70 1.80 2.01 2.34 2.54 2.70 2.74 2.43 2.70 3.18 2.87 2.87 2.59 2.28 2.12 1.95 1.85 1.71 1.62 1.59 1.82 1.95 2.13
1.72 1.83 1.78 1.82 1.80 1.71 1.72 1.81 1.82 1.74 1.81 1.81 1.65 1.47 1.38 1.49 1.62 1.82 2.11 2.36 2.45 2.46 2.45 2.49 2.80 2.86 2.97 2.84 2.35 2.12 2.16 2.12 1.85 1.69 1.61 1.57 1.61 1.83
1.75 1.85 1.83 1.71 1.68 1.64 1.65 1.62 1.56 1.64 1.75 1.70 1.53 1.42 1.40 1.49 1.64 1.76 1.99 2.21 2.49 2.48 2.42 2.48 2.71 3.05 3.14 2.65 2.41 2.24 2.05 2.21 2.03 1.80 1.68 1.63 1.59 1.62
1.98 1.94 1.84 1.75 1.75 1.65 1.55 1.50 1.48 1.58 1.67 1.55 1.53 1.56 1.58 1.63 1.68 1.69 1.86 2.04 2.28 2.22 2.25 2.47 2.70 2.91 3.07 2.96 2.77 2.33 2.07 2.00 1.96 1.90 1.86 1.85 1.83 1.77
1.99 1.94 1.73 1.58 1.55 1.50 1.48 1.47 1.42 1.40 1.42 1.47 1.54 1.57 1.60 1.63 1.67 1.67 1.79 1.97 2.08 2.02 2.05 2.25 2.56 2.86 3.08 3.23 2.95 2.46 2.16 2.06 2.00 1.94 1.89 1.97 2.04 1.98
1.66 1.57 1.48 1.42 1.40 1.38 1.37 1.37 1.34 1.26 1.32 1.45 1.53 1.55 1.57 1.62 1.65 1.67 1.73 1.86 1.93 1.93 1.98 2.11 2.42 2.77 2.87 2.83 2.88 2.52 2.31 2.20 2.09 2.11 2.04 1.95 2.03 2.05
1.42 1.39 1.39 1.38 1.38 1.40 1.36 1.33 1.31 1.29 1.37 1.44 1.49 1.51 1.56 1.64 1.65 1.60 1.62 1.74 1.83 1.86 1.90 1.99 2.25 2.62 2.88 2.69 2.68 2.63 2.53 2.38 2.22 2.22 2.16 2.02 2.01 2.09
1.31 1.31 1.33 1.40 1.41 1.38 1.34 1.32 1.32 1.32 1.31 1.36 1.41 1.45 1.50 1.60 1.60 1.49 1.50 1.61 1.73 1.78 1.80 1.77 1.91 2.24 2.60 2.68 2.61 2.44 2.52 2.65 2.44 2.30 2.25 2.26 2.23 2.19
1.21 1.24 1.24 1.29 1.38 1.40 1.36 1.34 1.33 1.29 1.30 1.34 1.35 1.36 1.40 1.50 1.53 1.47 1.50 1.59 1.59 1.60 1.66 1.67 1.73 2.02 2.47 2.74 2.57 2.31 2.34 2.55 2.74 2.57 2.37 2.34 2.56 2.74
1.24 1.24 1.21 1.21 1.27 1.33 1.37 1.36 1.31 1.23 1.21 1.28 1.31 1.31 1.35 1.43 1.41 1.45 1.47 1.51 1.55 1.55 1.61 1.70 1.74 1.92 2.22 2.41 2.53 2.42 2.29 2.30 2.40 2.54 2.72 2.46 2.13 2.09